Mobridge, SD

11:06 AM CDT on September 24, 2017 (GMT -0500)
Mobridge Municipal

Weather History for KMBG - November, 2011

Change the Weather History Date:

Tuesday, November 22, 2011

  Actual Average Record
Temperature  
Mean Temperature 29 °F 28 °F  
Max Temperature 44 °F 39 °F 67 °F (1912)
Min Temperature 13 °F 17 °F -8 °F (1929)
Degree Days  
Heating Degree Days 36 37  
Month to date heating degree days 688 677  
Since 1 July heating degree days 1314 1451  
Cooling Degree Days 0 0  
Month to date cooling degree days 0 0  
Year to date cooling degree days 684 644  
Moisture  
Dew Point 21 °F    
Average Humidity 80    
Maximum Humidity 100    
Minimum Humidity 60    
Precipitation  
Precipitation 0.00 in 0.01 in 0.28 in (1931)
Month to date precipitation 0.03 0.44  
Year to date precipitation 18.87 17.39  
Snow  
Snow 0.00 in - - ()
Month to date snowfall 0.4  
Since 1 July snowfall 0.4  
Snow Depth 0.00 in    
Sea Level Pressure  
Sea Level Pressure 30.00 in    
Wind  
Wind Speed 4 mph (SSE)    
Max Wind Speed 10 mph    
Max Gust Speed 16 mph    
Visibility 6 miles    
Events Fog    
T = Trace of Precipitation, MM = Missing Value Source: NWS Daily Summary

Daily Weather History Graph

Daily Weather History Graph

Search for Another Location

Airport or City:

Trip Planner

Search our weather history database for the weather conditions in past years. The results will help you decide how hot, cold, wet, or windy it might be!

Date:

Astronomy

Nov. 22, 2011 Rise Set
Actual Time 7:50 AM CST 5:05 PM CST
Civil Twilight 7:17 AM CST 5:37 PM CST
Nautical Twilight 6:40 AM CST 6:14 PM CST
Astronomical Twilight 6:05 AM CST 6:49 PM CST
Moon 4:36 AM CST (11/22) 3:10 PM CST (11/22)
Length of Visible Light 10h 20m
Length of Day
9h 15m
Waning Crescent, 9% of the Moon is Illuminated
Nov 22
Waning Crescent
Nov 25
New
Dec 2
First Quarter
Dec 10
Full
Dec 17
Last Quarter

Hourly Weather History & Observations

Time (CST) Temp. Windchill Dew Point Humidity Pressure Visibility Wind Dir Wind Speed Gust Speed Precip Events Conditions
12:52 AM 15.1 °F - 15.1 °F 100% 30.06 in 8.0 mi Calm Calm - N/A   Clear
1:52 AM 15.1 °F - 14.0 °F 95% 30.04 in 2.5 mi Calm Calm - N/A   Scattered Clouds
1:55 AM 15.8 °F - 15.8 °F 100% 29.96 in 1.0 mi Calm Calm - N/A   Mist
2:05 AM 14.0 °F - 12.2 °F 93% 29.96 in 4.0 mi Calm Calm - N/A   Mostly Cloudy
2:19 AM 15.8 °F - 12.2 °F 86% 29.96 in 1.2 mi Calm Calm - N/A   Mostly Cloudy
2:27 AM 17.6 °F - 15.8 °F 93% 29.96 in 0.5 mi Calm Calm - N/A Fog Light Freezing Fog
2:36 AM 19.4 °F - 17.6 °F 93% 29.96 in 1.0 mi Calm Calm - N/A   Mist
2:52 AM 19.9 °F - 18.0 °F 92% 30.04 in 0.8 mi Calm Calm - N/A   Mist
3:52 AM 21.9 °F - 21.0 °F 96% 30.03 in 0.2 mi Calm Calm - N/A Fog Light Freezing Fog
4:11 AM 19.4 °F 12.8 °F 19.4 °F 100% 29.97 in 2.5 mi SSW 4.6 mph - N/A   Overcast
4:18 AM 19.4 °F 12.8 °F 17.6 °F 93% 29.96 in 4.0 mi SW 4.6 mph - N/A   Overcast
4:32 AM 19.4 °F 14.3 °F 17.6 °F 93% 29.96 in 1.8 mi SW 3.5 mph - N/A   Overcast
4:52 AM 19.9 °F - 18.0 °F 92% 30.05 in 0.2 mi Calm Calm - N/A Fog Light Freezing Fog
5:41 AM 15.8 °F 10.2 °F 14.0 °F 93% 29.96 in 1.2 mi SE 3.5 mph - N/A   Overcast
5:52 AM 15.1 °F 9.4 °F 14.0 °F 95% 30.04 in 0.5 mi SE 3.5 mph - N/A Fog Light Freezing Fog
6:34 AM 19.4 °F 12.8 °F 17.6 °F 93% 29.96 in 2.0 mi SE 4.6 mph - N/A   Overcast
6:42 AM 19.4 °F 12.8 °F 17.6 °F 93% 29.96 in 9.0 mi South 4.6 mph - N/A   Mostly Cloudy
6:52 AM 17.1 °F 8.7 °F 14.0 °F 88% 30.05 in 10.0 mi South 5.8 mph - N/A   Scattered Clouds
7:52 AM 14.0 °F 8.2 °F 12.0 °F 92% 30.05 in 10.0 mi East 3.5 mph - N/A   Clear
8:52 AM 19.9 °F - 18.0 °F 92% 30.04 in 10.0 mi Calm Calm - N/A   Clear
9:52 AM 24.1 °F - 23.0 °F 96% 30.04 in 10.0 mi Calm Calm - N/A   Clear
10:52 AM 28.0 °F - 24.1 °F 85% 30.05 in 10.0 mi Calm Calm - N/A   Clear
11:52 AM 30.9 °F 27.5 °F 25.0 °F 79% 30.03 in 10.0 mi SSW 3.5 mph - N/A   Clear
12:52 PM 37.9 °F 35.5 °F 28.9 °F 70% 30.00 in 10.0 mi South 3.5 mph - N/A   Clear
1:52 PM 41.0 °F 37.1 °F 28.9 °F 62% 29.99 in 10.0 mi South 5.8 mph - N/A   Clear
2:52 PM 43.0 °F 39.5 °F 30.0 °F 60% 29.97 in 10.0 mi South 5.8 mph - N/A   Clear
3:52 PM 39.9 °F 35.1 °F 30.0 °F 68% 29.97 in 10.0 mi SSE 6.9 mph - N/A   Clear
4:52 PM 36.0 °F 29.0 °F 32.0 °F 86% 29.97 in 10.0 mi SSE 9.2 mph - N/A   Clear
5:52 PM 34.0 °F 27.2 °F 30.9 °F 89% 29.99 in 10.0 mi SE 8.1 mph - N/A   Clear
6:52 PM 30.9 °F 25.2 °F 28.9 °F 92% 29.99 in 10.0 mi SE 5.8 mph - N/A   Clear
7:52 PM 30.0 °F 23.2 °F 28.9 °F 96% 30.00 in 10.0 mi SE 6.9 mph - N/A   Clear
8:52 PM 30.9 °F 24.3 °F 28.9 °F 92% 30.00 in 10.0 mi SE 6.9 mph - N/A   Clear
9:52 PM 30.9 °F 25.2 °F 30.0 °F 96% 30.00 in 10.0 mi SSE 5.8 mph - N/A   Clear
10:52 PM 30.0 °F 24.1 °F 28.0 °F 92% 30.01 in 9.0 mi South 5.8 mph - N/A   Clear
11:52 PM 27.0 °F 18.0 °F 25.0 °F 92% 30.00 in 10.0 mi SE 9.2 mph - N/A   Clear